Location: Sternwarte ZA, Rosenfeld-Brittheim
(48.2889°N, 8.6789°E)
Time: 09:54:42
(UTC+02:00)

ISS - Pass Details

Date: 25 May 2018
Orbit: 402 x 407 km, 51.6° (Epoch: 27 May)

Event Time Altitude Azimuth Distance (km) Brightness Sun altitude
Rises 02:03:57 0° 292° (WNW) 2,322 0.2 -20.2°
Reaches altitude 10° 02:06:02 10° 291° (WNW) 1,460 -0.9 -20.1°
Enters shadow 02:08:16 40° 289° (WNW) 607 -3.0 -20.0°
